Regional Weather Roundup
Issued by NWS

Home | Current Version | Previous Version | Graphics & Text | Print | Product List | Glossary On
Versions: 1 2 3 4 5 6 7 8 9 10 11 12 13 14 15 16 17 18 19 20 21 22 23 24 25 26 27 28 29 30 31 32 33 34 35 36 37 38 39 40 41 42 43 44 45 46 47 48 49 50
000
ASUS43 KLMK 030502
RWRKY
KENTUCKY REGIONAL WEATHER ROUNDUP
NATIONAL WEATHER SERVICE LOUISVILLE KY
1200 AM EST SAT DEC 03 2016

NOTE "FAIR" INDICATES FEW OR NO CLOUDS BELOW 12,000 FEET
WITH NO SIGNIFICANT WEATHER AND/OR OBSTRUCTIONS TO VISIBILITY.

KYZ001>023-026-027-061>063-070>075-030600-
WESTERN AND SOUTH CENTRAL KENTUCKY

CITY           SKY/WX    TMP DP  RH WIND       PRES   REMARKS
PADUCAH        CLEAR     33  28  81 CALM      30.35R
HENDERSON      CLEAR     28  23  80 CALM      30.35S
OWENSBORO      CLEAR     33  29  85 CALM      30.36S
HOPKINSVILLE   NOT AVBL
BOWLING GREEN  CLEAR     35  29  78 CALM      30.35R
GLASGOW        NOT AVBL
$$

KYZ024-025-028>034-038-045-046-053-030600-
NORTH CENTRAL KENTUCKY

CITY           SKY/WX    TMP DP  RH WIND       PRES   REMARKS
LOUISVILLE/SDF CLOUDY    42  28  57 NW8       30.34R
LOUISVILLE/LOU CLOUDY    42  30  62 W6        30.35R
FORT KNOX      CLOUDY    40  31  70 CALM      30.32R
$$

KYZ035>037-039>044-047>052-055>060-089>105-030600-
NORTHEAST KENTUCKY

CITY           SKY/WX    TMP DP  RH WIND       PRES   REMARKS
LEXINGTON      CLOUDY    39  29  67 N3        30.32S
COVINGTON      CLOUDY    38  33  82 NW6       30.31R WCI  33
FRANKFORT      CLOUDY    40  31  70 CALM      30.32R
$$

KYZ054-064>069-076>088-106>120-030600-
SOUTHEAST KENTUCKY

CITY           SKY/WX    TMP DP  RH WIND       PRES   REMARKS
JACKSON        CLOUDY    36  30  79 CALM      30.30S
LONDON         CLEAR     32  26  78 CALM      30.31S
SOMERSET       PTCLDY    32  28  86 CALM      30.35R
MIDDLESBORO    CLEAR     31  30  94 CALM      30.31S
MONTICELLO     CLEAR     29  27  92 VRB5      30.35R WCI  24
$$




USA.gov is the U.S. government's official web portal to all federal, state and local government web resources and services.